Flag for U.S.A. Weather past 2 weeks in Thousand Oaks, California, U.S.A.

Now
72 °F

Sunny.


Feels Like: 75 °F
Forecast: 65 / 84 °F
Wind: 9 mph from West

Location: Camarillo Airport

Current Time: Aug 1, 2014 at 7:37:35 PM

Latest Report: Aug 1, 2014 at 6:55 PM


Visibility: 10 mi

Pressure: 29.88 "Hg

Humidity: 68%

Dew point: 61 °F

Location of Thousand OaksLocation

Historic Weather in Thousand Oaks — Graph

°F

Thousand Oaks temperature yesterday

Maximum temperature yesterday: 80 °F (at 11:55 AM)
Minimum temperature yesterday: 65 °F (at 3:55 AM)
Average temperature yesterday: 71 °F

Past Weeks' High & Low Weather Summary

 TemperatureHumidityPressure
High86 °F (Jul 24, 1:55 PM)88% (Jul 26, 9:02 PM)30.09 "Hg (Jul 26, 9:02 PM)
Low60 °F (Jul 18, 4:55 AM)30% (Jul 27, 5:55 PM)29.77 "Hg (Jul 24, 5:55 PM)
Average71 °F70%29.97 "Hg
* Reported Jul 17 5:55 PM — Aug 1 5:55 PM, Thousand Oaks, Weather by CustomWeather, © 2014

Note: Actual official high and low records may vary slightly from our data, if they occured in-between our weather recording intervals... More about our weather records

Advertising

Thousand Oaks weather history for previous 24 hours

 ConditionsComfort  
Time TempWeatherWind HumidityBarometerVisibility
5:55 PM
Aug 1
75 °FSunny.5 mph62%29.88 "Hg10 mi
4:55 PM76 °FSunny.7 mph60%29.90 "Hg10 mi
3:55 PM78 °FSunny.8 mph56%29.90 "Hg10 mi
2:55 PM77 °FSunny.9 mph60%29.91 "Hg10 mi
1:55 PM77 °FSunny.10 mph60%29.93 "Hg10 mi
12:55 PM79 °FSunny.8 mph58%29.93 "Hg9 mi
11:55 AM77 °FSunny.9 mph62%29.94 "Hg7 mi
10:55 AM76 °FSunny.7 mph64%29.95 "Hg8 mi
9:55 AM71 °FScattered clouds.3 mph73%29.96 "Hg8 mi
8:55 AM68 °FPartly sunny.No wind76%29.95 "Hg5 mi
7:55 AM66 °FLow clouds.No wind81%29.94 "Hg6 mi
6:55 AM64 °FFog.No wind87%29.93 "Hg6 mi
5:55 AM64 °FLow clouds.No wind84%29.93 "Hg8 mi
5:03 AM64 °FLow clouds.No wind83%29.90 "Hg8 mi
4:55 AM64 °FLow clouds.No wind84%29.93 "Hg8 mi
3:55 AM64 °FLow clouds.No wind87%29.93 "Hg8 mi
2:55 AM65 °FLow clouds.No wind85%29.92 "Hg8 mi
1:55 AM65 °FClear.No wind85%29.93 "Hg7 mi
12:55 AM65 °FPassing clouds.No wind85%29.93 "Hg8 mi
12:03 AM64 °FPassing clouds.3 mph88%29.90 "Hg9 mi
11:55 PM
Jul 31
66 °FClear.No wind81%29.92 "Hg9 mi
10:55 PM66 °FClear.5 mph81%29.92 "Hg9 mi
9:55 PM66 °FClear.No wind81%29.92 "Hg10 mi
8:55 PM67 °FSunny.7 mph79%29.90 "Hg10 mi
7:55 PM68 °FSunny.6 mph76%29.89 "Hg10 mi
Weather by CustomWeather, © 2014

See weather overviewHow to use our weather pages